Regional Weather Roundup
Issued by NWS

Home | Current Version | Previous Version | Graphics & Text | Print | Product List | Glossary On
Versions: 1 2 3 4 5 6 7 8 9 10 11 12 13 14 15 16 17 18 19 20 21 22 23 24 25 26 27 28 29 30 31 32 33 34 35 36 37 38 39 40 41 42 43 44 45 46 47 48 49 50
000
ASUS45 KTFX 240410
RWRMT
MONTANA REGIONAL WEATHER ROUNDUP
NATIONAL WEATHER SERVICE GREAT FALLS MT
1000 PM MDT SAT SEP 23 2017

NOTE: "FAIR" INDICATES FEW OR NO CLOUDS BELOW 12000 FEET WITH NO
SIGNIFICANT WEATHER AND/OR OBSTRUCTIONS TO VISIBILITY.

MTZ001>007-043-240500-
WEST OF THE DIVIDE

CITY           SKY/WX    TMP DP  RH WIND       PRES   REMARKS
KALISPELL      CLOUDY    43  40  89 CALM      30.12R
MISSOULA       CLEAR     44  37  76 CALM      30.12S
BUTTE          CLEAR     34  31  88 SE5       30.12S
MULLAN PASS    CLOUDY    36  32  85 CALM      30.13R
ANACONDA         N/A     39  27  60 CALM      30.12S
DEER LODGE       N/A     43  30  61 CALM      30.13S
EUREKA           N/A     48  39  71 CALM      30.09R
HAMILTON         N/A     45  37  76 CALM      30.12S
LIBBY            N/A     46  39  76 SE3       30.09R
$$

MTZ008-052>055-240500-
SOUTHWEST MONTANA

CITY           SKY/WX    TMP DP  RH WIND       PRES   REMARKS
BOZEMAN        CLOUDY    42  35  76 S6        30.10S
DILLON         CLOUDY    41  29  62 E3        30.08S
W YELLOWSTONE  CLOUDY    36  28  75 NE9G21    30.06S WCI  29
ENNIS          CLOUDY    37  32  81 N10       30.12R WCI  30
THREE FORKS      N/A     46  34  63 CALM      30.08F
$$

MTZ009-010-012-014-046-048-049-054-240500-
EAST SLOPES AND CENTRAL MONTANA

CITY           SKY/WX    TMP DP  RH WIND       PRES   REMARKS
CUT BANK       CLEAR     39  33  79 W8        30.07S
GREAT FALLS    CLEAR     38  31  76 S8        30.09R
MALMSTROM AFB  CLEAR     38  33  81 S9        30.09S WCI  31
HELENA         CLOUDY    47  33  58 SW3       30.10S
BOWMANS CRNR     N/A     38  30  71 SW6       30.07S
CHOTEAU          N/A     41  32  70 W5        30.09S
FAIRFIELD        N/A     40  32  71 SE6       30.07S
POWER            N/A     38  31  77 S5        30.07S
RAYNESFORD       N/A     36  30  80 CALM      30.10S
ULM              N/A     37  33  83 SE8       30.09S WCI  31
$$

MTZ011-013-016-021-045-047-050-051-240500-
NORTH CENTRAL MONTANA

CITY           SKY/WX    TMP DP  RH WIND       PRES   REMARKS
HAVRE          CLEAR     38  35  89 SE5       30.10R
LEWISTOWN      CLOUDY    43  38  82 E6        30.11S
N BAR RANCH    CLOUDY    36  36 100 NW3       30.13F
CHINOOK          N/A     45  41  87 E6        30.11R
DENTON           N/A     42  39  89 S8        30.07S
GEYSER           N/A     38  32  80 SW6       30.09S
JUDITH GAP     DRIZZLE   40  38  92 S10       30.11R
WINIFRED       CLOUDY    43  40  88 E9        30.09F
$$

MTZ017>020-022>027-061-062-240500-
NORTHEAST MONTANA

CITY           SKY/WX    TMP DP  RH WIND       PRES   REMARKS
GLASGOW        CLOUDY    47  39  74 SE5       30.14R
JORDAN           N/A     47  40  76 CALM      30.12F
SIDNEY         LGT RAIN  46  44  93 N6        30.12S
WOLF POINT     CLOUDY    47  43  86 CALM      30.15R
MALTA          MOCLDY    41  39  93 CALM      30.14R
PLENTYWOOD       N/A     46  41  81 CALM      30.13S
POPLAR           N/A     46  43  87 CALM      30.15R
$$

MTZ028>42-056>058-240500-
SOUTHCENTRAL AND SOUTHEAST MONTANA

CITY           SKY/WX    TMP DP  RH WIND       PRES   REMARKS
BAKER          LGT RAIN  44  41  89 N7        30.10F
BILLINGS       CLOUDY    43  39  86 N3        30.11F
LIVINGSTON     CLOUDY    42  35  76 SE3       30.09S
MILES CITY     LGT RAIN  43  41  93 N6        30.12F
BIG TIMBER     CLOUDY    41  37  87 E5        30.13S
HARLOWTON      MOCLDY    41  39  93 MISG      30.10F
LAUREL           N/A     39  37  93 CALM      30.11F
$$

REGIONAL REPORTS...DAKOTAS

CITY           SKY/WX    TMP DP  RH WIND       PRES   REMARKS
WILLISTON      LGT RAIN  46  43  89 N6        30.12F
MINOT          LGT RAIN  48  46  93 N7        30.08S
DICKINSON      LGT RAIN  45  44  97 NE7       30.08R FOG
BEACH          DRIZZLE   43  43 100 N6        30.14R
CROSBY         CLOUDY    45  45 100 CALM      30.13F
TIOGA          MOCLDY    43  43 100 N13       30.10F
BISMARCK       LGT RAIN  49  48  97 N9        30.06R FOG
GRAND FORKS    LGT RAIN  54  53  97 N9        30.00F
FARGO          CLOUDY    56  55  97 NE9       29.96F
BUFFALO SD       N/A     45  44  97 NE12      30.01S
RAPID CITY     LGT RAIN  45  45 100 N14       30.03F FOG
$$

REGIONAL REPORTS...WYOMING/IDAHO/WASHINGTON

CITY           SKY/WX    TMP DP  RH WIND       PRES   REMARKS
GILLETTE       CLOUDY    41  32  70 N8        30.05R FOG
SHERIDAN       LGT RAIN  40  40 100 N3        30.10R
BUFFALO WY     CLOUDY    38  35  89 N12       30.07F WCI  30
CODY           CLOUDY    39  33  79 N8        30.10S
IDAHO FALLS    CLEAR     41  32  70 N10       30.00S
SALMON         CLOUDY    44  31  60 CALM      30.09S
BOISE          CLEAR     51  35  54 W7        30.01S
SPOKANE        CLOUDY    55  41  59 S5        30.09S
$$

REGIONAL REPORTS...ALBERTA

CITY           SKY/WX    TMP DP  RH WIND       PRES   REMARKS
EDMONTON       CLEAR     45  39  81 S7        30.03S
CALGARY        PTCLDY    39  32  75 S9        30.07R
LETHBRIDGE     CLEAR     34  32  93 VRB2      30.08R
MEDICINE HAT   CLOUDY    46  37  71 E6        30.08S
$$

REGIONAL REPORTS...SASKATCHEWAN

CITY           SKY/WX    TMP DP  RH WIND       PRES   REMARKS
SWIFT CURRENT    N/A     39  36  87 S10       30.11S
REGINA         CLOUDY    43  36  75 E3        30.16F
SASKATOON      MOCLDY    46  39  76 CALM      30.16R
$$



USA.gov is the U.S. government's official web portal to all federal, state and local government web resources and services.